Weather History for KLOL - January, 2013

Change the Weather History Date:

Wednesday, January 9, 2013

  Actual Average Record
Temperature  
Mean Temperature 24 °F -  
Max Temperature 37 °F 39 °F 66 °F (1953)
Min Temperature 12 °F 16 °F -9 °F (1982)
Degree Days  
Heating Degree Days 40    
Moisture  
Dew Point 20 °F    
Average Humidity 84    
Maximum Humidity 95    
Minimum Humidity 70    
Precipitation  
Precipitation 0.00 in - - ()
Sea Level Pressure  
Sea Level Pressure 30.03 in    
Wind  
Wind Speed 4 mph (SSE)    
Max Wind Speed 31 mph    
Max Gust Speed 38 mph    
Visibility 9 miles    
Events Snow    
Averages and records for this station are not official NWS values.
T = Trace of Precipitation, MM = Missing Value Source: NWS Daily Summary

Daily Weather History Graph

Daily Weather History Graph

Search for Another Location

Airport or City:

Trip Planner

Search our weather history database for the weather conditions in past years. The results will help you decide how hot, cold, wet, or windy it might be!

Date:

Astronomy

Jan. 09, 2013 Rise Set
Actual Time 7:16 AM PST 4:47 PM PST
Civil Twilight 6:45 AM PST 5:17 PM PST
Nautical Twilight 6:12 AM PST 5:51 PM PST
Astronomical Twilight 5:39 AM PST 6:23 PM PST
Moon 5:00 AM PST (1/9) 2:54 PM PST (1/9)
Length of Visible Light 10h 31m
Length of Day
9h 31m
Waning Crescent, 6% of the Moon is Illuminated
Jan 9
Waning Crescent
Jan 11
New
Jan 18
First Quarter
Jan 26
Full
Feb 3
Last Quarter

Hourly Weather History & Observations

Time (PST) Temp. Windchill Dew Point Humidity Pressure Visibility Wind Dir Wind Speed Gust Speed Precip Events Conditions
12:53 AM 12.9 °F 5.2 °F 10.9 °F 92% 30.35 in 8.0 mi NE 4.6 mph - N/A   Clear
1:53 AM 12.9 °F 6.9 °F 10.0 °F 88% 30.32 in 9.0 mi East 3.5 mph - N/A   Clear
2:53 AM 14.0 °F 6.5 °F 12.0 °F 92% 30.29 in 8.0 mi WNW 4.6 mph - N/A   Clear
3:53 AM 12.0 °F 2.7 °F 9.0 °F 88% 30.27 in 7.0 mi SE 5.8 mph - N/A   Clear
4:53 AM 12.0 °F 5.9 °F 10.0 °F 92% 30.27 in 8.0 mi WNW 3.5 mph - N/A   Clear
5:53 AM 14.0 °F 8.2 °F 12.9 °F 95% 30.24 in 7.0 mi West 3.5 mph - N/A   Clear
6:53 AM 14.0 °F 6.5 °F 12.0 °F 92% 30.23 in 9.0 mi East 4.6 mph - N/A   Clear
7:53 AM 15.1 °F - 12.0 °F 88% 30.23 in 7.0 mi Calm Calm - N/A   Clear
8:53 AM 16.0 °F 10.4 °F 12.9 °F 88% 30.22 in 8.0 mi WNW 3.5 mph - N/A   Clear
10:53 AM 27.0 °F - 23.0 °F 85% 30.12 in 8.0 mi Calm Calm - N/A   Clear
11:53 AM 30.9 °F - 24.1 °F 76% 30.05 in 9.0 mi Calm Calm - N/A   Clear
12:53 PM 36.0 °F - 27.0 °F 70% 29.99 in 10.0 mi Calm Calm - N/A   Clear
1:53 PM 37.9 °F 33.5 °F 28.9 °F 70% 29.95 in 10.0 mi East 5.8 mph - N/A   Clear
2:53 PM 37.0 °F - 28.9 °F 73% 29.92 in 10.0 mi Calm Calm - N/A   Clear
3:53 PM 37.9 °F - 30.0 °F 73% 29.89 in 10.0 mi Calm Calm - N/A   Clear
4:53 PM 33.1 °F - 27.0 °F 78% 29.87 in 10.0 mi Calm Calm - N/A   Clear
5:53 PM 28.0 °F - 24.1 °F 85% 29.86 in 10.0 mi Calm Calm - N/A   Clear
6:53 PM 30.0 °F 23.2 °F 26.1 °F 85% 29.84 in 9.0 mi ESE 6.9 mph - N/A   Clear
7:53 PM 30.0 °F 23.2 °F 26.1 °F 85% 29.81 in 9.0 mi WNW 6.9 mph - N/A   Mostly Cloudy
8:53 PM 30.0 °F 23.2 °F 26.1 °F 85% 29.77 in 9.0 mi ESE 6.9 mph - N/A   Clear
9:53 PM 30.9 °F 26.2 °F 26.1 °F 82% 29.74 in 10.0 mi SSW 4.6 mph - N/A   Clear
10:53 PM 26.1 °F 20.5 °F 21.0 °F 81% 29.72 in 10.0 mi South 4.6 mph - N/A   Clear
11:53 PM 34.0 °F 20.1 °F 30.9 °F 89% 29.72 in 8.0 mi WNW 31.1 mph 38.0 mph 0.00 in Snow Light Snow